Location: Campillo
(40.8621°N, 4.2488°W)
Time: 15:10:00
(UTC+00:00)

Cosmos 1777 Rocket - Pass Details

Date: 27 September 2021
Orbit: 759 x 775 km, 74.0° (Epoch: 18 October)

Event Time Altitude Azimuth Distance (km) Brightness Sun altitude
Rises 04:03:04 0° 352° (N) 3,228 7.4 -24.3°
Reaches altitude 10° 04:05:56 10° 7° (N) 2,297 6.8 -23.8°
Maximum altitude 04:10:01 23° 59° (ENE) 1,585 6.4 -23.1°
Drops below altitude 10° 04:14:05 10° 111° (ESE) 2,288 7.1 -22.3°
Sets 04:16:55 0° 126° (SE) 3,210 7.7 -21.8°
